User: anonymous   Login
Location: Boda
(47.1872°N, 9.5454°E)
Time: 18:21:20
(UTC+00:00)
Language:

IRS-1C - Orbit

View from above orbital plane
View from above orbital plane
View from above satellite
View from above satellite

Ground track
Ground track

The orbit data is extracted from the following two-line orbital elements,

1 23751U 95072A   21210.87155723  .00000006  00000-0  23161-4 0  9998
2 23751  98.8719 168.5979 0001263  81.5731 278.5589 14.22663330328180
Epoch (UTC): 29 July 2021 20:55:02
Eccentricity: 0.0001263
inclination: 98.8719°
perigee height: 815 km
apogee height: 817 km
right ascension of ascending node: 168.5979°
argument of perigee: 81.5731°
revolutions per day: 14.22663330
mean anomaly at epoch: 278.5589°
orbit number at epoch: 32818

The dashed part of the orbit path shows where the satellite is in the earth's shadow,  

DLR